Theta_e
307 307 306 306 307 307 310 310 312 312 311 312 312 312 311 310 309 307 305 302 299 295 295 294 293 294 293 292 292 292 291 290 289 288 288 288 290 288 288 287 287 287 287 288
306 305 304 305 305 306 307 308 308 309 311 310 310 310 310 309 309 307 304 301 298 295 294 294 295 293 293 291 291 290 289 289 288 287 287 288 287 287 287 287 287 286 286 286
308 306 306 310 309 308 309 309 309 311 311 312 311 311 310 310 309 307 304 299 296 293 295 295 293 292 290 289 289 288 287 287 287 287 288 286 286 286 286 285 286 285 285 285
306 305 308 306 306 308 308 310 312 312 312 312 311 310 309 310 309 306 301 297 294 296 298 293 291 290 289 288 287 287 287 287 286 287 285 285 286 286 285 284 284 284 285 285
306 305 304 305 305 306 310 310 309 311 312 311 308 306 304 305 305 302 297 295 297 297 293 290 288 288 287 287 287 287 286 286 285 284 284 284 284 285 284 284 284 284 284 284
305 304 304 304 306 307 309 311 310 309 310 310 307 311 307 300 298 296 295 293 292 292 290 287 287 286 286 286 286 286 285 285 284 283 284 284 283 284 283 284 283 283 283 283
305 305 304 305 304 305 307 308 308 308 308 308 309 307 299 297 295 292 291 290 289 288 286 286 286 286 286 286 285 285 285 285 284 283 283 283 282 283 283 283 283 282 282 282
305 306 305 304 304 306 307 307 307 306 306 305 300 297 295 293 291 290 289 288 287 287 286 285 285 286 286 285 284 284 285 284 284 283 283 282 282 281 282 281 281 281 281 281
305 306 305 306 307 306 305 306 304 304 302 299 297 295 293 291 289 289 288 287 286 286 285 285 284 284 284 283 283 284 284 284 283 282 282 282 281 280 280 279 279 279 279 279
304 305 306 306 304 303 303 305 302 301 299 298 295 293 291 290 288 287 286 286 285 285 285 284 284 283 283 283 282 283 283 282 282 282 281 281 280 279 279 277 277 277 277 277
304 305 305 304 303 303 301 300 299 298 297 295 293 291 290 288 287 286 285 285 285 284 284 283 283 282 282 282 281 282 281 281 281 281 280 280 280 278 277 276 275 275 275 275
307 305 306 306 301 301 299 298 297 296 294 293 291 290 289 287 285 285 284 283 283 283 283 282 282 281 281 281 280 280 280 280 279 280 279 279 279 279 278 276 275 274 273 273
305 304 304 303 300 299 298 296 295 294 292 291 289 288 287 285 284 283 283 282 282 282 281 281 281 281 280 280 280 279 279 279 279 278 278 278 277 277 277 277 276 275 275 276
303 302 300 299 298 297 295 293 292 290 289 289 288 286 285 286 285 284 284 283 283 282 282 281 281 280 280 279 279 279 278 278 277 277 276 276 276 276 276 275 276 275 274 274
302 302 302 298 296 293 292 291 289 289 288 287 286 285 285 285 284 283 283 282 282 281 281 280 280 279 279 279 279 278 278 277 277 276 276 275 275 275 275 275 275 274 274 273
302 301 298 297 294 292 291 290 290 288 287 286 285 284 283 282 283 282 281 281 281 281 280 280 279 279 279 279 278 277 277 277 276 276 275 275 275 275 274 274 274 274 273 271
298 296 296 294 293 292 291 291 290 288 286 285 284 283 283 282 281 281 281 281 280 280 280 279 279 279 279 278 278 277 277 276 276 275 274 274 274 274 274 273 273 273 272 270
300 299 298 298 295 293 291 290 288 287 287 286 285 285 284 283 282 281 280 280 280 279 279 279 279 278 278 278 277 276 276 275 275 274 274 273 273 273 273 272 272 272 271 271
299 298 296 295 294 292 290 289 289 288 288 288 287 285 283 282 281 280 280 280 279 279 279 279 278 278 277 277 276 276 275 275 274 274 273 273 273 272 272 271 271 271 271 270
298 297 295 293 292 293 293 292 291 290 288 287 285 284 282 281 280 280 279 279 278 278 278 278 278 277 277 276 276 275 275 274 274 273 273 272 272 272 271 271 270 270 270 270
298 294 293 294 294 294 293 292 291 290 288 286 285 284 282 281 279 279 279 278 278 278 278 277 277 276 276 276 275 275 274 274 273 273 273 272 271 271 271 270 270 269 269 269
296 296 297 296 295 293 292 291 290 289 287 285 284 282 281 280 279 279 279 279 278 278 277 277 276 276 275 275 275 274 274 274 273 273 272 272 271 270 270 269 269 269 268 268
295 295 296 295 294 292 291 290 289 288 287 285 283 282 280 280 279 279 279 278 278 278 277 276 276 276 275 274 274 274 273 273 273 272 272 271 270 270 269 269 269 268 267 268
295 294 294 293 292 291 290 289 288 286 285 283 282 281 280 279 279 278 279 278 278 277 276 276 276 275 274 274 274 273 273 272 272 272 271 271 270 269 268 268 268 268 268 268
293 293 293 291 291 290 289 288 286 284 283 281 281 280 279 278 278 278 278 278 277 277 276 275 275 274 274 273 273 273 272 272 271 271 270 270 270 269 268 268 269 269 269 269
292 291 291 290 289 290 289 287 285 283 281 280 280 279 278 278 278 278 277 277 276 275 274 274 274 273 273 273 272 272 272 271 271 270 271 270 270 269 269 269 269 269 269 268
291 291 291 290 289 289 287 285 284 282 281 280 279 279 278 278 278 277 277 276 275 275 274 273 273 273 272 272 272 271 271 271 271 270 270 270 270 269 269 269 269 268 268 268
Wind_Speed
19 18 15 18 21 21 15 17 13 20 20 25 20 12 17 18 21 23 23 20 16 14 9 3 3 7 11 12 13 15 14 15 17 18 18 19 22 22 22 23 22 24 24 25
17 16 16 21 24 23 21 23 23 24 27 25 29 7 15 19 21 23 21 20 16 12 8 1 5 9 11 12 13 12 12 13 14 16 18 22 21 21 21 22 22 23 22 24
15 10 8 9 21 21 17 23 22 20 26 19 16 9 14 17 20 20 21 19 16 12 6 1 5 8 9 10 10 10 11 12 14 17 20 21 20 21 22 22 23 23 23 25
12 12 16 14 14 11 14 18 18 19 23 18 17 3 2 9 15 19 22 21 16 10 2 2 5 7 8 9 9 10 11 13 14 19 18 18 19 22 22 22 23 23 23 25
12 13 17 20 16 15 13 19 14 18 18 18 10 9 9 7 13 20 21 17 14 7 4 1 3 5 6 7 9 10 13 14 14 16 18 19 19 21 22 23 23 23 22 25
14 15 19 19 4 6 8 16 13 13 12 8 13 7 5 15 20 21 19 15 12 7 3 2 4 5 6 8 10 11 12 13 13 15 16 17 19 20 22 22 21 22 23 24
16 17 18 21 18 10 12 10 3 2 4 10 7 4 24 22 21 19 17 14 11 8 7 6 6 7 7 8 10 11 12 12 13 15 15 17 19 18 20 21 21 23 23 24
13 19 20 16 11 19 6 3 3 2 5 13 19 24 25 23 21 18 15 12 10 9 8 7 7 7 8 10 10 10 11 12 13 14 16 18 17 18 18 21 22 24 25 26
8 6 5 2 8 4 5 6 3 8 12 21 25 25 24 22 20 16 13 11 10 10 9 8 9 9 9 10 11 10 10 12 14 15 15 16 17 18 19 21 23 25 27 28
12 12 14 8 4 2 4 7 3 11 18 22 27 25 23 20 18 15 12 12 11 10 10 9 9 9 10 10 11 10 12 13 13 14 15 16 16 17 18 21 23 25 28 28
14 14 6 10 8 4 1 9 13 16 18 24 26 23 21 19 16 14 13 12 11 10 10 10 9 9 10 11 12 11 12 13 14 14 16 15 15 16 17 18 21 23 26 25
7 5 9 9 9 8 14 17 18 22 24 21 22 22 20 17 15 14 14 12 12 11 10 10 9 9 11 12 13 13 12 13 15 13 14 15 15 15 17 19 20 23 24 25
14 9 10 5 11 15 17 19 19 20 21 24 20 20 18 19 16 17 15 13 13 12 11 10 9 9 11 12 13 14 14 12 12 13 14 15 16 17 19 19 19 23 29 29
7 10 10 18 13 17 20 20 21 20 21 21 21 18 18 19 18 16 15 14 14 13 11 9 9 9 10 12 12 12 13 14 12 13 13 14 15 16 17 19 22 24 27 30
15 14 11 20 23 21 21 24 24 22 22 20 18 19 18 19 18 17 16 16 14 12 10 9 7 9 9 10 10 12 13 13 11 11 12 14 14 16 17 18 20 22 25 29
15 9 19 23 28 26 25 24 24 23 21 21 20 18 17 17 17 17 16 15 12 12 10 9 8 8 8 8 9 9 11 14 13 11 12 13 14 15 17 18 19 21 23 28
19 18 22 24 31 28 28 23 22 23 23 21 20 20 19 18 18 17 17 16 14 12 10 9 7 7 6 6 8 7 7 10 13 11 13 13 13 14 16 17 19 20 21 24
17 18 24 35 34 30 26 22 23 23 22 22 22 21 20 19 18 19 18 16 14 11 9 7 7 5 5 5 6 6 7 8 10 10 11 12 13 13 14 16 17 19 20 22
17 19 25 30 27 27 26 25 24 24 24 22 21 20 19 18 19 18 17 15 13 9 8 7 6 4 3 3 5 6 7 7 8 10 10 12 11 12 14 15 16 17 19 20
19 20 26 27 26 28 29 27 25 22 22 22 22 21 22 20 19 18 17 14 12 10 9 7 5 3 2 3 4 4 5 7 7 9 11 10 11 11 12 14 15 16 18 19
23 26 30 32 32 28 25 24 24 24 23 21 20 21 21 21 19 17 15 10 11 10 9 7 5 3 2 2 2 3 5 6 7 8 9 10 11 11 12 13 14 15 17 18
26 29 31 33 30 27 24 24 22 21 21 22 21 21 21 21 20 18 16 11 12 10 8 6 6 4 2 2 1 2 4 5 6 7 9 10 11 11 11 13 14 15 16 18
25 27 30 32 28 26 26 23 21 19 20 21 22 21 20 19 18 16 15 14 12 10 8 8 6 4 3 2 1 2 4 5 6 7 8 10 10 11 12 14 15 15 17 20
24 28 31 29 26 25 25 23 20 19 19 20 20 20 19 20 18 16 14 13 12 10 10 9 8 6 4 2 1 3 4 5 6 7 8 10 11 12 12 13 16 18 20 22
26 28 27 26 25 24 22 22 21 22 21 21 21 20 18 16 13 15 14 13 12 11 10 9 8 7 4 3 2 3 4 5 7 8 9 10 12 13 14 16 19 22 24 25
24 24 24 23 20 21 21 21 22 24 24 22 23 22 20 18 16 14 14 13 12 12 10 9 8 6 5 4 4 5 6 6 7 8 11 11 14 15 17 19 22 24 26 27
22 21 21 20 18 19 19 21 21 22 23 21 21 22 19 17 15 13 14 14 13 12 10 9 9 8 6 5 5 6 7 7 9 10 13 15 17 18 20 22 24 26 27 28
Wind_Direction
262 267 276 275 274 274 274 266 264 273 275 277 280 249 220 206 197 192 190 187 182 178 185 194 342 337 342 330 333 338 341 343 341 340 336 339 340 340 335 333 335 332 333 332
260 266 254 257 257 256 254 255 256 258 262 268 278 270 210 209 204 197 192 180 174 161 176 203 329 345 328 332 338 344 342 347 343 338 337 342 342 341 335 338 337 333 334 336
271 266 277 272 252 249 248 245 248 257 262 279 281 231 229 219 215 197 182 173 166 154 164 1 329 318 332 337 344 345 346 355 345 342 347 346 345 341 341 337 335 338 341 337
262 282 259 252 259 267 264 256 253 260 262 265 275 325 344 221 201 181 170 163 154 155 175 258 307 329 341 350 353 357 353 360 348 347 348 347 347 345 341 343 339 341 339 339
243 246 257 276 270 268 250 267 268 250 256 261 152 144 65 114 153 157 156 151 151 164 176 292 2 2 13 11 6 4 4 356 349 351 350 351 345 347 345 346 343 341 339 339
238 242 255 258 303 337 288 262 257 247 263 181 170 226 123 130 135 138 137 133 135 146 137 83 41 40 39 21 12 5 2 356 355 354 355 351 351 350 351 344 342 343 343 343
234 247 256 263 270 276 251 260 56 266 211 174 172 41 136 135 131 131 128 128 131 123 107 85 60 55 47 26 15 5 1 358 359 3 358 356 358 353 349 347 346 348 347 349
232 241 248 251 253 224 310 358 304 134 144 125 122 124 132 135 131 125 121 121 119 115 100 79 66 61 42 25 11 7 5 7 6 3 5 358 354 355 355 355 354 353 353 353
206 230 287 299 278 302 301 298 253 151 145 139 133 137 139 136 128 122 124 123 120 114 100 80 66 58 46 28 18 17 14 15 14 10 11 2 3 358 1 1 359 357 355 355
247 256 255 250 245 317 296 335 237 155 151 142 137 140 137 133 128 129 128 124 118 111 101 88 71 58 48 33 27 25 24 21 19 12 19 8 8 8 5 5 4 2 359 359
249 265 261 240 227 237 195 158 150 140 140 136 137 142 136 133 134 134 129 123 117 113 105 93 79 61 47 37 33 33 30 26 25 17 15 12 9 5 14 11 10 6 3 1
246 266 235 291 213 199 167 153 148 143 134 137 143 136 141 136 136 136 131 126 120 115 108 95 80 64 50 43 38 40 35 30 25 20 16 13 11 9 1 8 12 15 12 9
258 269 242 204 170 164 155 155 146 143 138 137 136 141 143 139 141 140 132 128 131 126 113 102 88 70 59 52 45 42 41 38 30 27 21 17 13 10 5 8 9 12 16 16
207 181 147 162 168 157 154 146 139 137 138 142 144 144 146 147 145 145 142 138 133 122 114 104 87 74 63 54 46 41 40 35 35 28 24 19 16 13 11 9 5 4 8 12
203 210 218 187 167 153 154 148 143 142 143 142 145 149 149 146 147 146 145 138 129 127 120 106 98 83 66 55 48 46 42 38 35 30 25 22 19 16 14 12 9 5 2 9
185 188 166 168 161 162 158 157 152 150 150 150 150 150 148 147 147 147 142 141 131 136 130 121 103 87 70 56 49 42 34 34 39 32 27 24 20 18 15 13 11 9 7 5
158 163 166 165 165 165 166 164 162 158 155 155 155 155 153 153 151 153 155 146 146 145 134 120 111 95 80 63 57 47 39 29 35 30 28 28 22 19 16 13 12 11 8 2
207 203 192 181 168 165 165 164 163 162 159 162 163 165 165 161 162 158 153 152 153 148 136 135 120 105 86 74 66 54 45 35 31 30 28 25 28 21 19 16 12 11 8 6
190 179 174 172 166 164 164 164 165 169 173 172 169 166 164 165 163 160 159 160 154 150 153 150 132 120 107 85 69 51 44 39 33 28 29 28 21 20 17 17 13 10 8 7
176 180 168 162 164 170 170 175 176 173 170 171 171 170 170 168 167 166 164 160 168 178 171 159 150 155 132 83 64 46 44 40 33 24 23 23 22 15 15 12 13 9 7 6
171 160 165 172 172 173 178 175 176 175 174 176 179 178 174 171 171 171 173 173 183 181 178 173 172 179 164 106 62 36 40 36 30 24 21 18 16 13 10 9 9 6 3 3
171 172 174 174 172 172 175 175 178 179 178 177 179 180 177 177 175 178 182 179 191 191 184 191 202 204 192 150 96 39 32 27 26 23 18 15 13 10 6 5 3 1 358 359
170 172 170 172 174 174 174 178 178 185 186 183 180 180 182 185 182 185 191 199 199 198 200 210 211 218 192 167 99 23 12 10 13 9 4 4 4 3 0 357 358 355 353 353
162 166 169 173 177 177 176 175 179 183 189 185 183 184 187 186 187 190 200 200 207 204 212 213 213 213 198 200 311 350 353 353 356 355 352 355 352 353 352 348 349 349 348 348
166 167 172 174 176 178 183 182 184 185 184 186 185 188 192 196 199 203 204 205 209 212 215 218 212 205 214 238 287 313 327 337 341 344 343 341 344 344 342 341 342 342 343 343
166 170 173 175 181 187 190 190 190 188 187 188 191 194 196 202 205 209 208 208 210 213 212 217 219 225 237 266 287 301 313 315 325 331 334 336 334 336 335 336 337 338 337 337
170 174 179 185 191 195 197 195 196 194 194 196 197 199 202 204 207 211 209 210 213 215 219 224 231 237 245 266 287 302 311 309 315 323 327 329 331 331 331 332 333 333 333 333